• Processing (Info)

  • MPEC 2023-K123 : 2023 KD2

    The following Minor Planet Electronic Circular may be linked-to from your own Web pages, but must not otherwise be redistributed electronically.

    A form allowing access to any MPEC is at the bottom of this page.


    Read MPEC 2023-K122 Read MPEC 2023-K124


    M.P.E.C. 2023-K123                                 Issued 2023 May 24, 05:23 UT
    
         The Minor Planet Electronic Circulars contain information on unusual
             minor planets, routine data on comets and natural satellites,
             and occasional editorial announcements.  They are published
        on behalf of Division F of the International Astronomical Union by the
              Minor Planet Center, Smithsonian Astrophysical Observatory,
                              Cambridge, MA 02138, U.S.A.
    			  
                 Prepared using the Tamkin Foundation Computer Network
    
                                  MPC@CFA.HARVARD.EDU
                URL https://www.minorplanetcenter.net/    ISSN 1523-6714
    
                                    2023 KD2                                 
    
    
    Observations:
         K23K02D* C2023 05 22.29230 15 38 31.21 +12 27 41.1          19.62gUEK123I41
         K23K02D  C2023 05 22.29265 15 38 30.89 +12 27 31.7          19.62gUEK123I41
         K23K02D  C2023 05 22.35334 15 37 48.84 +12 00 33.0          19.56gUEK123I41
         K23K02D  C2023 05 22.35369 15 37 48.54 +12 00 23.2          19.56gUEK123I41
         K23K02D  C2023 05 22.35790 15 37 45.65 +11 58 29.8          19.15RUEK123I41
         K23K02D  C2023 05 22.35825 15 37 45.45 +11 58 20.2          19.15RUEK123I41
         K23K02D IC2023 05 22.87740715 32 48.44 +08 12 53.2          18.9 GVEK123L01
         K23K02D KC2023 05 22.87889015 32 47.50 +08 12 15.5          18.7 GVEK123L01
         K23K02D KC2023 05 22.88036915 32 46.56 +08 11 38.5          18.7 GVEK123L01
         K23K02D KC2023 05 22.88218315 32 45.41 +08 10 52.6          18.7 GVEK123L01
         K23K02D KC2023 05 22.88397815 32 44.30 +08 10 06.8          18.8 GVEK123L01
         K23K02D KC2023 05 22.91443515 32 25.79 +07 57 21.4                VEK123104
         K23K02D KC2023 05 22.91713315 32 24.07 +07 56 13.2          19.0 GVEK123104
         K23K02D KC2023 05 22.91790415 32 25.154+07 55 30.54         18.8 GVEK123J95
         K23K02D KC2023 05 22.92055715 32 23.501+07 54 23.80         19.0 GVEK123J95
         K23K02D KC2023 05 22.92253315 32 20.66 +07 53 57.2          18.6 GVEK123104
         K23K02D KC2023 05 22.92455215 32 21.094+07 52 43.75         19.3 GVEK123J95
         K23K02D mC2023 05 23.21962815 29 40.211+05 51 28.87         19.02GVEK123I52
         K23K02D mC2023 05 23.21981315 29 40.070+05 51 24.70         18.96GVEK123I52
         K23K02D mC2023 05 23.21998415 29 39.973+05 51 19.91         19.03GVEK123I52
         K23K02D mC2023 05 23.22015515 29 39.880+05 51 16.02         18.88GVEK123I52
         K23K02D  C2023 05 23.23586915 29 31.527+05 44 45.33         19.4 GVEK123654
         K23K02D  C2023 05 23.27756215 29 06.170+05 27 50.94         19.1 GVEK123654
         K23K02D  C2023 05 23.30548715 28 49.177+05 16 33.48         19.3 GVEK123654
         K23K02D KC2023 05 23.85869315 24 07.97 +01 39 30.9          18.5 GXEK123L18
         K23K02D KC2023 05 23.86756215 24 03.07 +01 36 11.6          19.0 GXEK123L18
         K23K02D KC2023 05 23.87638415 23 58.19 +01 32 51.3          18.8 GXEK123L18
         K23K02D KB2023 05 23.91318 15 23 40.77 +01 18 48.9          18.6 GVEK123L65
         K23K02D KB2023 05 23.93082 15 23 31.20 +01 12 11.6          18.1 GVEK123L65
         K23K02D KC2023 05 24.02320215 22 40.40 +00 38 12.0          18.9 RVEK123M50
         K23K02D KC2023 05 24.03722415 22 32.93 +00 33 01.7                VEK123M50
         K23K02D KC2023 05 24.17282915 21 36.78 -00 16 32.9          19.4 VuEK123H21
         K23K02D KC2023 05 24.17668515 21 34.74 -00 17 56.7          19.1 VuEK123H21
         K23K02D KC2023 05 24.17861515 21 33.69 -00 18 38.8          19.0 VuEK123H21
    
    Observer details:
    104 San Marcello Pistoiese.  Observers P. Bacci, M. Maestripieri.  Measurers
        P. Bacci, L. Tesi, G. Fagioli.  0.60-m F4 Reflector + CCD.
    654 Table Mountain Observatory, Wrightwood-PHMC.  Observers N. Evans, P. Choi,
        N. Saini, C. Zhai, R. Trahan, M. Shao.  1.0-m Reflector + CCD.
    H21 Astronomical Research Observatory, Westfield.  Observer R. Holmes.
        Measurers T. Linder, R. Holmes, L. Horn.  0.76-m f/3.0 astrograph + CCD.
    I41 Palomar Mountain--ZTF.  Observers K. Venkataramani, T. Prince, G. Helou,
        Q.-Z. Ye, D. Kulkarni, V. Swain, C. Y. Hsu, Y. Cheng.  Measurers F. Masci,
        D. Shupe, K. Venkataramani, Q.-Z. Ye.  1.2-m f/2.44 Oschin-Schmidt + CCD.
    I52 Steward Observatory, Mt. Lemmon Station.  Observer A. Serrano.  Measurers
        E. J. Christensen, D. Fay, J. B. Fazekas, D. C. Fuls, A. R. Gibbs, A. D.
        Grauer, H. Groeller, J. K. Hogan, R. A. Kowalski, S. M. Larson, G. J.
        Leonard, D. Rankin, R. L. Seaman, A. Serrano, F. C. Shelly, K. W.
        Wierzchos.  1.0-m prime focus + CCD.
    J95 Great Shefford.  Observer P. Birtwhistle.  0.41-m f/6.3 Schmidt-Cassegrain
        + CCD.
    L01 Visnjan Observatory, Tican.  Observer K. Korlevic.  1.0-m f/2.9 reflector
        + CCD.
    L18 QOS Observatory, Zalistci.  Observers V. L. Pasatetskiy, B. O. Basiev.
        Measurer A. M. Kozhukhov.  0.50-m f/3.8 reflector + CCD.
    L65 Bredenkamp Observatory, Bremen.  Observer H. Duin.  0.23-m f/6.3 reflector
        + CMO.
    M50 Virtual Telescope Project, Manciano.  Observer G. Masi.  0.36-m  f/8.0
        Schmidt-Cassegrain + CCD.
    
    Orbital elements:
    2023 KD2                                                 Earth MOID = 0.0374 AU
    Epoch 2023 Feb. 25.0 TT = JDT 2460000.5                 Bell                    
    M 356.50082              (2000.0)            P               Q                  
    n   0.92137617     Peri.   71.34560     -0.69856868     -0.68345385             
    a   1.0459511      Node    64.90596     +0.53602518     -0.69599512             
    e   0.2419323      Incl.   13.53043     +0.47400296     -0.22018543             
    P   1.07           H   24.84          G   0.15           U   8                  
    Residuals in seconds of arc
    230522 I41  2.0+  0.6+    230522 104  0.4-  0.1+    230523 L18  0.2+  0.4+
    230522 I41  0.9+  0.5+    230522 J95  0.3-  0.4-    230523 L18  0.3-  2.2+
    230522 I41  0.6+  0.6+    230522 J95  0.6-  0.3-    230523 L18  0.9-  1.6+
    230522 I41  0.3-  0.1+    230522 104  0.7-  0.3+    230523 L65  0.7+  0.1+
    230522 I41  0.3-  1.0-    230522 J95  0.2+  0.2+    230523 L65  0.1+  0.3-
    230522 I41  0.3+  1.3-    230523 I52  0.3+  0.2+    230524 M50  1.1-  0.6-
    230522 L01  0.1+  0.1+    230523 I52  0.1-  0.6+    230524 M50  0.7-  0.4+
    230522 L01  0.1-  0.1-    230523 I52  0.0   0.0     230524 H21  0.1-  0.4-
    230522 L01  0.3-  0.3+    230523 I52  0.2+  0.3+    230524 H21  0.3+  0.1-
    230522 L01  0.5-  0.3+    230523 654  0.1+  0.1+    230524 H21  0.1+  0.2-
    230522 L01  0.3-  0.1-    230523 654  0.2-  0.1+
    230522 104  0.0   0.2+    230523 654  0.4-  0.1+
    
    Ephemeris:
    2023 KD2                 a,e,i = 1.05, 0.24, 14                  q = 0.7929
    Date    TT    R. A. (2000) Decl.     Delta      r    Elong.  Phase     V
    2023 04 24    00 24 40.6 +64 23 47   0.1473  0.9280    54.6   118.0    25.2
    ...
    2023 05 09    21 13 55.9 +71 38 38   0.07231 0.9903    72.8   103.2    22.9
    ...
    2023 05 17    17 01 22.6 +51 50 08   0.04162 1.0237   106.4    71.3    20.5
    ...
    2023 05 23    15 31 36.0 +07 23 59   0.04072 1.0483   151.5    27.4    19.2
    2023 05 24    15 22 57.1 +00 49 22   0.04323 1.0524   156.6    22.4    19.2
    2023 05 25    15 15 24.9 -04 58 20   0.04632 1.0564   160.1    19.0    19.3
    ...
    2023 05 31    14 45 58.1 -26 19 56   0.07230 1.0802   156.0    22.4    20.4
    ...
    2023 06 08    14 29 20.8 -37 20 46   0.1155  1.1106   144.2    32.3    21.7
    ...
    2023 06 23    14 27 13.8 -44 04 47   0.2059  1.1628   131.4    41.0    23.3
    
    M. P. C. Staff               (C) Copyright 2023 MPC           M.P.E.C. 2023-K123
    


    Read MPEC 2023-K122 Read MPEC 2023-K124


    MPEC number:

    Enter an MPEC number in one of the following forms:

    • 1997-B01 (the full form)
    • J97B01 (the packed version of the full form)
    • B01 (the abbreviated form)